カタログに戻る

SJ-21

運用中科学GEO
NORAD 49330·PAYLOAD·🇨🇳 China

打ち上げ Oct 24, 2021 から Xichang Satellite Launch Center

Loading…

TLE

最新Source: Space-Track

元期: Sep 14, 2026, 18:38 UTC

1 49330U 21094A   26257.77680567 -.00000354  00000-0  00000+0 0  9995
2 49330   5.3208  60.5739 0053533 171.4545 169.2705  1.00266299  6253

AllMySatでSJ-21をリアルタイム追跡

Download on the App Store